Time,TemperatureF,DewpointF,PressureIn,WindDirection,WindDirectionDegrees,WindSpeedMPH,WindSpeedGustMPH,Humidity,HourlyPrecipIn,Conditions,Clouds,dailyrainin,SolarRadiationWatts/m^2,SoftwareType,DateUTC
2013-08-19 00:07:00,66.0,61.0,30.03,South,179,0.0,0.0,85,0.00,,,0.00,0,weatherlink.com 1.10,2013-08-19 04:07:00,
2013-08-19 00:22:00,65.7,62.0,30.03,South,179,0.0,0.0,86,0.00,,,0.00,0,weatherlink.com 1.10,2013-08-19 04:22:00,
2013-08-19 00:37:00,65.5,61.0,30.03,South,179,0.0,0.0,86,0.00,,,0.00,0,weatherlink.com 1.10,2013-08-19 04:37:00,
2013-08-19 00:52:00,64.7,61.0,30.03,South,179,0.0,0.0,87,0.00,,,0.00,0,weatherlink.com 1.10,2013-08-19 04:52:00,
2013-08-19 01:07:00,64.2,61.0,30.03,South,179,0.0,0.0,88,0.00,,,0.00,0,weatherlink.com 1.10,2013-08-19 05:07:00,
2013-08-19 01:22:00,63.8,61.0,30.02,South,179,0.0,0.0,89,0.00,,,0.00,0,weatherlink.com 1.10,2013-08-19 05:22:00,
2013-08-19 01:37:00,63.6,60.0,30.02,South,179,0.0,0.0,89,0.00,,,0.00,0,weatherlink.com 1.10,2013-08-19 05:37:00,
2013-08-19 01:52:00,63.2,60.0,30.03,South,179,0.0,0.0,89,0.00,,,0.00,0,weatherlink.com 1.10,2013-08-19 05:52:00,
2013-08-19 02:07:00,62.9,60.0,30.02,South,179,0.0,0.0,90,0.00,,,0.00,0,weatherlink.com 1.10,2013-08-19 06:07:00,
2013-08-19 02:22:00,62.6,60.0,30.01,South,179,0.0,0.0,90,0.00,,,0.00,0,weatherlink.com 1.10,2013-08-19 06:22:00,
2013-08-19 02:37:00,62.5,60.0,30.02,South,179,0.0,0.0,90,0.00,,,0.00,0,weatherlink.com 1.10,2013-08-19 06:37:00,
2013-08-19 02:52:00,62.3,59.0,30.01,South,179,0.0,0.0,90,0.00,,,0.00,0,weatherlink.com 1.10,2013-08-19 06:52:00,
2013-08-19 03:07:00,62.1,60.0,30.00,South,179,0.0,0.0,91,0.00,,,0.00,0,weatherlink.com 1.10,2013-08-19 07:07:00,
2013-08-19 03:22:00,62.0,59.0,30.02,South,179,0.0,0.0,91,0.00,,,0.00,0,weatherlink.com 1.10,2013-08-19 07:22:00,
2013-08-19 03:37:00,61.9,59.0,30.01,South,179,0.0,0.0,91,0.00,,,0.00,0,weatherlink.com 1.10,2013-08-19 07:37:00,
2013-08-19 03:52:00,61.7,59.0,30.01,South,179,0.0,0.0,91,0.00,,,0.00,0,weatherlink.com 1.10,2013-08-19 07:52:00,
2013-08-19 04:07:00,61.5,59.0,30.02,South,179,0.0,0.0,92,0.00,,,0.00,0,weatherlink.com 1.10,2013-08-19 08:07:00,
2013-08-19 04:22:00,61.2,59.0,30.01,South,179,0.0,0.0,92,0.00,,,0.00,0,weatherlink.com 1.10,2013-08-19 08:22:00,
2013-08-19 04:37:00,61.1,59.0,30.01,South,179,0.0,1.0,92,0.00,,,0.00,0,weatherlink.com 1.10,2013-08-19 08:37:00,
2013-08-19 04:52:00,61.1,59.0,30.02,South,179,0.0,0.0,92,0.00,,,0.00,0,weatherlink.com 1.10,2013-08-19 08:52:00,
2013-08-19 05:07:00,60.9,59.0,30.01,South,179,0.0,0.0,92,0.00,,,0.00,0,weatherlink.com 1.10,2013-08-19 09:07:00,
2013-08-19 05:22:00,60.8,59.0,30.01,South,179,0.0,0.0,92,0.00,,,0.00,0,weatherlink.com 1.10,2013-08-19 09:22:00,
2013-08-19 05:37:00,60.6,58.0,30.02,South,179,0.0,0.0,92,0.00,,,0.00,0,weatherlink.com 1.10,2013-08-19 09:37:00,
2013-08-19 05:52:00,60.5,59.0,30.01,South,179,0.0,0.0,93,0.00,,,0.00,0,weatherlink.com 1.10,2013-08-19 09:52:00,
2013-08-19 06:07:00,60.3,58.0,30.01,South,179,0.0,0.0,92,0.00,,,0.00,0,weatherlink.com 1.10,2013-08-19 10:07:00,
2013-08-19 06:22:00,60.0,58.0,30.02,South,179,0.0,0.0,93,0.00,,,0.00,0,weatherlink.com 1.10,2013-08-19 10:22:00,
2013-08-19 06:37:00,59.7,58.0,30.02,South,179,0.0,0.0,93,0.00,,,0.00,0,weatherlink.com 1.10,2013-08-19 10:37:00,
2013-08-19 06:52:00,59.5,58.0,30.02,South,179,0.0,0.0,93,0.00,,,0.00,0,weatherlink.com 1.10,2013-08-19 10:52:00,
2013-08-19 07:07:00,59.5,58.0,30.03,South,179,0.0,0.0,93,0.00,,,0.00,9,weatherlink.com 1.10,2013-08-19 11:07:00,
2013-08-19 07:22:00,59.7,58.0,30.02,South,179,0.0,0.0,94,0.00,,,0.00,21,weatherlink.com 1.10,2013-08-19 11:22:00,
2013-08-19 07:37:00,60.3,58.0,30.02,South,179,0.0,0.0,93,0.00,,,0.00,32,weatherlink.com 1.10,2013-08-19 11:37:00,
2013-08-19 07:52:00,61.4,59.0,30.03,South,179,0.0,0.0,92,0.00,,,0.00,56,weatherlink.com 1.10,2013-08-19 11:52:00,
2013-08-19 08:07:00,63.2,60.0,30.03,South,179,0.0,0.0,89,0.00,,,0.00,90,weatherlink.com 1.10,2013-08-19 12:07:00,
2013-08-19 08:22:00,65.2,61.0,30.02,South,179,0.0,0.0,86,0.00,,,0.00,128,weatherlink.com 1.10,2013-08-19 12:22:00,
2013-08-19 08:38:00,66.0,61.0,30.03,South,179,1.0,3.0,83,0.00,,,0.00,176,weatherlink.com 1.10,2013-08-19 12:38:00,
2013-08-19 08:53:00,66.4,62.0,30.03,South,179,2.0,3.0,84,0.00,,,0.00,225,weatherlink.com 1.10,2013-08-19 12:53:00,
2013-08-19 09:08:00,67.4,62.0,30.04,South,179,1.0,5.0,83,0.00,,,0.00,271,weatherlink.com 1.10,2013-08-19 13:08:00,
2013-08-19 09:23:00,68.7,63.0,30.03,South,179,3.0,5.0,81,0.00,,,0.00,323,weatherlink.com 1.10,2013-08-19 13:23:00,
2013-08-19 09:38:00,69.9,63.0,30.03,SW,215,0.0,6.0,79,0.00,,,0.00,362,weatherlink.com 1.10,2013-08-19 13:38:00,
2013-08-19 09:53:00,71.0,64.0,30.03,SW,223,2.0,7.0,79,0.00,,,0.00,408,weatherlink.com 1.10,2013-08-19 13:53:00,
2013-08-19 10:08:00,72.1,64.0,30.03,SW,223,2.0,6.0,76,0.00,,,0.00,455,weatherlink.com 1.10,2013-08-19 14:08:00,
2013-08-19 10:23:00,72.4,64.0,30.03,SW,226,3.0,6.0,76,0.00,,,0.00,496,weatherlink.com 1.10,2013-08-19 14:23:00,
2013-08-19 10:38:00,73.8,65.0,30.03,SW,228,2.0,6.0,75,0.00,,,0.00,538,weatherlink.com 1.10,2013-08-19 14:38:00,
2013-08-19 10:53:00,74.8,66.0,30.02,SSW,201,0.0,5.0,73,0.00,,,0.00,578,weatherlink.com 1.10,2013-08-19 14:53:00,
2013-08-19 11:08:00,75.2,66.0,30.02,SW,222,0.0,9.0,73,0.00,,,0.00,617,weatherlink.com 1.10,2013-08-19 15:08:00,
2013-08-19 11:23:00,75.6,66.0,30.03,SSW,211,2.0,7.0,72,0.00,,,0.00,656,weatherlink.com 1.10,2013-08-19 15:23:00,
2013-08-19 11:38:00,76.2,65.0,30.02,SW,227,3.0,8.0,68,0.00,,,0.00,682,weatherlink.com 1.10,2013-08-19 15:38:00,
2013-08-19 11:53:00,77.1,65.0,30.02,SW,233,8.0,8.0,67,0.00,,,0.00,719,weatherlink.com 1.10,2013-08-19 15:53:00,
2013-08-19 12:08:00,77.4,63.0,30.02,West,260,2.0,9.0,62,0.00,,,0.00,772,weatherlink.com 1.10,2013-08-19 16:08:00,
2013-08-19 12:24:00,78.6,64.0,30.01,West,272,6.0,7.0,62,0.00,,,0.00,786,weatherlink.com 1.10,2013-08-19 16:24:00,
2013-08-19 12:39:00,79.1,64.0,30.02,West,278,5.0,8.0,60,0.00,,,0.00,388,weatherlink.com 1.10,2013-08-19 16:39:00,
2013-08-19 12:54:00,78.9,62.0,30.02,WSW,237,2.0,8.0,57,0.00,,,0.00,870,weatherlink.com 1.10,2013-08-19 16:54:00,
2013-08-19 13:09:00,79.0,62.0,30.02,WNW,293,5.0,9.0,57,0.00,,,0.00,846,weatherlink.com 1.10,2013-08-19 17:09:00,
2013-08-19 13:24:00,80.2,62.0,30.02,West,268,2.0,9.0,54,0.00,,,0.00,285,weatherlink.com 1.10,2013-08-19 17:24:00,
2013-08-19 13:39:00,80.3,63.0,30.01,West,278,1.0,8.0,55,0.00,,,0.00,886,weatherlink.com 1.10,2013-08-19 17:39:00,
2013-08-19 13:54:00,80.8,63.0,30.01,West,280,3.0,9.0,54,0.00,,,0.00,204,weatherlink.com 1.10,2013-08-19 17:54:00,
2013-08-19 14:09:00,80.6,62.0,30.01,WNW,291,5.0,7.0,54,0.00,,,0.00,281,weatherlink.com 1.10,2013-08-19 18:09:00,
2013-08-19 14:24:00,80.1,63.0,30.00,West,278,1.0,8.0,56,0.00,,,0.00,234,weatherlink.com 1.10,2013-08-19 18:24:00,
2013-08-19 14:39:00,79.9,62.0,30.00,West,279,2.0,7.0,55,0.00,,,0.00,272,weatherlink.com 1.10,2013-08-19 18:39:00,
2013-08-19 14:54:00,81.7,63.0,30.00,WSW,241,2.0,7.0,53,0.00,,,0.00,390,weatherlink.com 1.10,2013-08-19 18:54:00,
2013-08-19 15:09:00,81.3,62.0,30.00,WSW,244,2.0,6.0,53,0.00,,,0.00,954,weatherlink.com 1.10,2013-08-19 19:09:00,
2013-08-19 15:24:00,82.1,63.0,30.00,NW,311,2.0,7.0,53,0.00,,,0.00,265,weatherlink.com 1.10,2013-08-19 19:24:00,
2013-08-19 15:39:00,82.3,62.0,29.99,WNW,289,6.0,8.0,51,0.00,,,0.00,846,weatherlink.com 1.10,2013-08-19 19:39:00,
2013-08-19 15:54:00,82.0,63.0,30.00,West,265,3.0,8.0,52,0.00,,,0.00,766,weatherlink.com 1.10,2013-08-19 19:54:00,
2013-08-19 16:09:00,82.3,62.0,29.99,West,271,5.0,10.0,51,0.00,,,0.00,788,weatherlink.com 1.10,2013-08-19 20:09:00,
2013-08-19 16:24:00,82.2,63.0,29.98,West,277,4.0,7.0,52,0.00,,,0.00,714,weatherlink.com 1.10,2013-08-19 20:24:00,
2013-08-19 16:39:00,82.5,63.0,29.96,NNE,16,3.0,6.0,52,0.00,,,0.00,751,weatherlink.com 1.10,2013-08-19 20:39:00,
2013-08-19 16:54:00,84.0,63.0,29.96,NE,39,2.0,5.0,50,0.00,,,0.00,619,weatherlink.com 1.10,2013-08-19 20:54:00,
2013-08-19 17:09:00,83.3,62.0,29.96,WSW,241,6.0,8.0,49,0.00,,,0.00,561,weatherlink.com 1.10,2013-08-19 21:09:00,
2013-08-19 17:24:00,83.9,62.0,29.96,West,279,2.0,6.0,48,0.00,,,0.00,508,weatherlink.com 1.10,2013-08-19 21:24:00,
2013-08-19 17:39:00,83.2,62.0,29.97,WSW,258,2.0,7.0,49,0.00,,,0.00,417,weatherlink.com 1.10,2013-08-19 21:39:00,
2013-08-19 17:54:00,82.5,63.0,29.97,WSW,253,5.0,5.0,51,0.00,,,0.00,169,weatherlink.com 1.10,2013-08-19 21:54:00,
2013-08-19 18:09:00,81.8,63.0,29.97,WSW,252,4.0,5.0,53,0.00,,,0.00,322,weatherlink.com 1.10,2013-08-19 22:09:00,
2013-08-19 18:24:00,81.2,63.0,29.96,WSW,251,0.0,5.0,55,0.00,,,0.00,234,weatherlink.com 1.10,2013-08-19 22:24:00,
2013-08-19 18:40:00,80.9,64.0,29.97,WSW,251,1.0,5.0,56,0.00,,,0.00,178,weatherlink.com 1.10,2013-08-19 22:40:00,
2013-08-19 18:54:00,80.7,63.0,29.96,WSW,251,2.0,4.0,56,0.00,,,0.00,188,weatherlink.com 1.10,2013-08-19 22:54:00,
2013-08-19 19:09:00,80.3,64.0,29.95,WSW,251,0.0,4.0,58,0.00,,,0.00,142,weatherlink.com 1.10,2013-08-19 23:09:00,
2013-08-19 19:24:00,79.6,65.0,29.95,WSW,251,4.0,5.0,61,0.00,,,0.00,83,weatherlink.com 1.10,2013-08-19 23:24:00,
2013-08-19 19:39:00,79.5,65.0,29.95,WSW,251,1.0,2.0,62,0.00,,,0.00,95,weatherlink.com 1.10,2013-08-19 23:39:00,
2013-08-19 19:54:00,78.9,66.0,29.95,WSW,251,0.0,3.0,64,0.00,,,0.00,51,weatherlink.com 1.10,2013-08-19 23:54:00,
2013-08-19 20:09:00,78.2,66.0,29.95,WSW,251,0.0,2.0,66,0.00,,,0.00,28,weatherlink.com 1.10,2013-08-20 00:09:00,
2013-08-19 20:24:00,77.6,66.0,29.95,WSW,251,0.0,2.0,67,0.00,,,0.00,11,weatherlink.com 1.10,2013-08-20 00:24:00,
2013-08-19 20:39:00,77.0,66.0,29.95,WSW,251,0.0,0.0,69,0.00,,,0.00,0,weatherlink.com 1.10,2013-08-20 00:39:00,
2013-08-19 20:54:00,75.7,66.0,29.96,WSW,251,0.0,1.0,73,0.00,,,0.00,0,weatherlink.com 1.10,2013-08-20 00:54:00,
2013-08-19 21:09:00,74.6,66.0,29.95,WSW,251,0.0,0.0,75,0.00,,,0.00,0,weatherlink.com 1.10,2013-08-20 01:09:00,
2013-08-19 21:24:00,73.6,66.0,29.96,WSW,251,0.0,0.0,77,0.00,,,0.00,0,weatherlink.com 1.10,2013-08-20 01:24:00,
2013-08-19 21:39:00,72.6,66.0,29.97,WSW,251,0.0,0.0,80,0.00,,,0.00,0,weatherlink.com 1.10,2013-08-20 01:39:00,
2013-08-19 21:54:00,71.8,66.0,29.97,WSW,251,0.0,0.0,82,0.00,,,0.00,0,weatherlink.com 1.10,2013-08-20 01:54:00,
2013-08-19 22:09:00,71.1,66.0,29.98,WSW,251,0.0,0.0,83,0.00,,,0.00,0,weatherlink.com 1.10,2013-08-20 02:09:00,
2013-08-19 22:24:00,70.6,66.0,29.98,WSW,251,0.0,0.0,84,0.00,,,0.00,0,weatherlink.com 1.10,2013-08-20 02:24:00,
2013-08-19 22:39:00,70.0,66.0,29.97,WSW,251,0.0,0.0,86,0.00,,,0.00,0,weatherlink.com 1.10,2013-08-20 02:39:00,
2013-08-19 22:54:00,69.4,65.0,29.97,WSW,251,0.0,0.0,86,0.00,,,0.00,0,weatherlink.com 1.10,2013-08-20 02:54:00,
2013-08-19 23:09:00,69.2,65.0,29.98,WSW,251,0.0,0.0,87,0.00,,,0.00,0,weatherlink.com 1.10,2013-08-20 03:09:00,
2013-08-19 23:24:00,68.7,65.0,29.99,WSW,251,0.0,0.0,88,0.00,,,0.00,0,weatherlink.com 1.10,2013-08-20 03:24:00,
2013-08-19 23:39:00,68.3,65.0,29.98,WSW,251,0.0,0.0,88,0.00,,,0.00,0,weatherlink.com 1.10,2013-08-20 03:39:00,
2013-08-19 23:54:00,68.0,64.0,29.98,WSW,251,0.0,0.0,88,0.00,,,0.00,0,weatherlink.com 1.10,2013-08-20 03:54:00,